TimeICT,TemperatureF,Dew PointF,Humidity,Sea Level PressureIn,VisibilityMPH,Wind Direction,Wind SpeedMPH,Gust SpeedMPH,PrecipitationIn,Events,Conditions,WindDirDegrees,DateUTC
12:00 AM,80.6,75.2,84,29.74,5.6,Calm,Calm,-,N/A,,Scattered Clouds,0,2013-09-14 17:00:00
12:30 AM,78.8,75.2,89,29.74,5.6,Calm,Calm,-,N/A,,Scattered Clouds,0,2013-09-14 17:30:00
1:00 AM,78.8,75.2,89,29.71,5.6,Calm,Calm,-,N/A,,Scattered Clouds,0,2013-09-14 18:00:00
6:00 AM,78.8,77.0,94,29.74,5.6,Calm,Calm,-,N/A,,Scattered Clouds,0,2013-09-14 23:00:00
7:00 AM,,,,,,Calm,Calm,,,,,,2013-09-15 00:00:00
7:00 AM,80.6,77.0,89,29.74,6.2,Calm,Calm,-,N/A,,Scattered Clouds,0,2013-09-15 00:00:00
7:30 AM,82.4,77.0,84,29.74,6.2,Calm,Calm,-,N/A,,Scattered Clouds,0,2013-09-15 00:30:00
8:00 AM,82.4,75.2,79,29.74,6.2,Calm,Calm,-,N/A,,Scattered Clouds,0,2013-09-15 01:00:00
8:30 AM,84.2,75.2,74,29.74,6.2,Calm,Calm,-,N/A,,Scattered Clouds,0,2013-09-15 01:30:00
9:30 AM,84.2,77.0,79,29.77,6.2,Calm,Calm,-,N/A,,Scattered Clouds,0,2013-09-15 02:30:00
10:00 AM,84.2,75.2,74,29.77,6.2,Calm,Calm,-,N/A,,Scattered Clouds,0,2013-09-15 03:00:00
10:30 AM,86.0,75.2,70,29.77,6.2,Calm,Calm,-,N/A,,Scattered Clouds,0,2013-09-15 03:30:00
11:00 AM,86.0,75.2,70,29.74,6.2,Variable,1.2,-,N/A,,Scattered Clouds,0,2013-09-15 04:00:00
11:30 AM,87.8,77.0,70,29.74,6.2,Calm,Calm,-,N/A,,Scattered Clouds,0,2013-09-15 04:30:00
12:00 PM,87.8,77.0,70,29.74,6.2,Calm,Calm,-,N/A,,Partly Cloudy,0,2013-09-15 05:00:00
12:30 PM,87.8,77.0,70,29.71,6.2,Calm,Calm,-,N/A,,Partly Cloudy,0,2013-09-15 05:30:00
1:00 PM,86.0,77.0,74,29.68,5.6,Calm,Calm,-,N/A,Rain,Light Rain,0,2013-09-15 06:00:00
1:30 PM,80.6,77.0,89,29.68,3.7,West,8.1,-,N/A,Rain,Light Rain,280,2013-09-15 06:30:00
2:00 PM,82.4,75.2,79,29.65,5.0,Calm,Calm,-,N/A,Rain,Rain,0,2013-09-15 07:00:00
2:30 PM,77.0,75.2,94,29.65,3.1,SSW,3.5,16.1,N/A,Rain-Thunderstorm,Heavy Thunderstorms and Rain,210,2013-09-15 07:30:00
3:00 PM,78.8,75.2,89,29.65,4.3,Calm,Calm,-,N/A,Rain-Thunderstorm,Light Thunderstorms and Rain,0,2013-09-15 08:00:00
3:30 PM,78.8,75.2,89,29.68,4.3,Calm,Calm,-,N/A,Rain-Thunderstorm,Light Thunderstorms and Rain,0,2013-09-15 08:30:00
4:00 PM,78.8,75.2,89,29.65,4.3,Calm,Calm,-,N/A,Rain-Thunderstorm,Light Thunderstorms and Rain,0,2013-09-15 09:00:00
5:00 PM,78.8,75.2,89,29.68,4.3,Calm,Calm,-,N/A,Rain-Thunderstorm,Light Thunderstorms and Rain,0,2013-09-15 10:00:00
5:30 PM,78.8,75.2,89,29.68,4.3,WNW,3.5,-,N/A,Rain-Thunderstorm,Light Thunderstorms and Rain,290,2013-09-15 10:30:00
6:00 PM,77.0,75.2,94,29.68,4.3,WNW,5.8,-,N/A,Rain-Thunderstorm,Light Thunderstorms and Rain,290,2013-09-15 11:00:00
6:30 PM,77.0,75.2,94,29.68,4.3,Calm,Calm,-,N/A,Rain,Light Rain,0,2013-09-15 11:30:00
7:00 PM,77.0,75.2,94,29.71,4.3,Variable,2.3,-,N/A,Rain,Light Rain,0,2013-09-15 12:00:00
7:30 PM,77.0,75.2,94,29.71,5.0,Calm,Calm,-,N/A,Rain,Light Rain,0,2013-09-15 12:30:00
8:00 PM,77.0,75.2,94,29.71,5.0,Variable,2.3,-,N/A,Rain,Light Rain,0,2013-09-15 13:00:00
8:30 PM,77.0,75.2,94,29.74,5.0,Calm,Calm,-,N/A,Rain,Light Rain,0,2013-09-15 13:30:00
9:00 PM,77.0,75.2,94,29.74,5.0,SSE,2.3,-,N/A,Rain,Light Rain,160,2013-09-15 14:00:00
9:30 PM,78.8,75.2,89,29.74,5.0,SE,1.2,-,N/A,Rain,Light Rain,130,2013-09-15 14:30:00
10:00 PM,78.8,75.2,89,29.77,5.0,Calm,Calm,-,N/A,Rain,Light Rain,0,2013-09-15 15:00:00
10:30 PM,78.8,75.2,89,29.77,5.0,Calm,Calm,-,N/A,Rain,Light Rain,0,2013-09-15 15:30:00
11:00 PM,78.8,77.0,94,29.77,5.0,Calm,Calm,-,N/A,Rain,Light Rain,0,2013-09-15 16:00:00
11:30 PM,78.8,77.0,94,29.77,5.0,Calm,Calm,-,N/A,Rain,Light Rain,0,2013-09-15 16:30:00